This is the latest recevied weather packets stored in our database for station/object KBTL-WX. If no packets are shown the sender has not sent any weather packets the latest 10 day(s).
| Time | Temp. | Humidity | Pressure | Rain* | Wind** | Luminosity | Snow |
|---|---|---|---|---|---|---|---|
| 1777952712 | 15° C | 69% | 968.4 hPa | 2.54 mm | - | - | - |
| 1777951834 | 15.56° C | 79% | 968.3 hPa | 0.76 mm | - | - | - |
| 1777950915 | 15.56° C | 79% | 968.3 hPa | 0.76 mm | - | - | - |
| 1777950040 | 15.56° C | 79% | 968.3 hPa | 0.76 mm | - | - | - |
| 1777949115 | 16.11° C | 62% | 969.1 hPa | 0.51 mm | - | - | - |
| 1777948235 | 16.11° C | 56% | 969.1 hPa | 0.51 mm | - | - | - |
| 1777947315 | 17.78° C | 56% | 969.1 hPa | 0 mm | - | - | - |
| 1777946439 | 18.33° C | 56% | 969.1 hPa | 0 mm | - | - | - |
| 1777945515 | 18.89° C | 56% | 967.9 hPa | 0 mm | - | - | - |
| 1777944632 | 18.33° C | 56% | 967.9 hPa | 0 mm | - | - | - |
| 1777943716 | 16.67° C | 56% | 968 hPa | 0 mm | - | - | - |
| 1777942837 | 18.89° C | 56% | 968 hPa | 0 mm | - | - | - |
| 1777941915 | 18.89° C | 39% | 968.1 hPa | 0 mm | - | - | - |
| 1777941032 | 19.44° C | 49% | 969.1 hPa | 0 mm | - | - | - |
| 1777940114 | 18.89° C | 49% | 968.9 hPa | 0 mm | - | - | - |
| 1777939236 | 18.89° C | 49% | 968.9 hPa | 0 mm | - | - | - |
| 1777938314 | 20° C | 46% | 968.2 hPa | 0 mm | - | - | - |
| 1777937432 | 21.67° C | 37% | 968.5 hPa | 0 mm | - | - | - |
| 1777936514 | 21.67° C | 37% | 968.6 hPa | 0 mm | - | - | - |
| 1777935637 | 22.22° C | 37% | 968.6 hPa | 0 mm | - | - | - |
| 1777934714 | 22.78° C | 36% | 967.6 hPa | 0 mm | - | - | - |
| 1777933834 | 22.78° C | 40% | 968.1 hPa | 0 mm | - | - | - |
| 1777932914 | 22.78° C | 40% | 968.1 hPa | 0 mm | - | - | - |
| 1777932041 | 23.33° C | 40% | 968.1 hPa | 0 mm | - | - | - |
| 1777931113 | 23.33° C | 41% | 969.2 hPa | 0 mm | - | - | - |
* Rain latest hour (hover to see other rain measurements)
** Current wind speed in m/s (hover to see current wind gust speed)